SCP
0 0 0 0 0 0 0 0 0 0 0 0 0 0 0 0 0 0 0 0 -0 -0 -0 -0 0 0 0 0 0 0 0 0 0 0 0 0 0 0 0 0 0 0 0 0
0 0 0 0 0 0 0 0 0 0 0 0 0 0 0 0 0 0 0 0 0 -0 -0 -0 0 0 0 0 0 0 0 0 0 0 0 0 0 0 0 0 0 0 0 0
0 0 0 0 0 0 0 0 0 0 0 0 0 0 0 0 0 0 0 0 0 0 0 0 0 0 0 0 0 0 0 0 0 0 0 0 0 0 0 0 0 0 0 0
0 0 0 0 0 0 0 0 0 0 0 0 0 0 0 0 0 0 0 0 0 0 0 0 0 0 0 0 0 0 0 0 0 0 0 0 0 0 0 0 0 0 0 0
0 0 0 0 0 0 0 0 0 0 0 0 0 0 0 0 0 0 0 0 0 0 0 0 0 0 0 0 0 0 0 0 0 0 0 0 0 0 0 0 0 0 0 0
0 0 0 0 0 0 0 0 0 0 0 0 0 0 0 0 0 0 0 0 0 0 0 0 0 0 0 0 0 0 0 0 0 0 0 0 0 0 0 0 0 0 0 0
0 0 0 0 0 0 0 0 0 0 0 0 0 0 0 0 0 0 0 0 0 0 0 0 0 0 0 0 0 0 0 0 0 0 0 0 0 0 0 0 0 0 0 0
0 0 0 0 0 0 0 0 0 0 0 0 0 0 0 0 0 0 0 0 0 0 0 0 0 0 0 0 0 0 0 0 0 0 0 0 0 0 0 0 0 0 0 0
0 0 0 0 0 0 0 0 0 0 0 0 0 0 0 0 0 0 0 0 0 0 0 0 0 0 0 0 0 0 0 0 0 0 -0 -0 0 0 0 0 0 0 0 0
0 0 0 0 0 0 0 0 0 0 0 0 0 0 0 0 0 0 0 0 0 0 0 0 0 0 0 0 0 0 0 0 0 0 -0 -0 0 0 0 0 0 0 0 0
0 0 0 0 0 0 0 0 0 0 0 0 0 0 0 0 0 0 0 0 0 0 0 0 0 0 0 0 0 0 0 0 0 0 -0 -0 0 0 0 0 0 0 0 0
0 0 0 0 0 0 0 0 0 0 0 0 0 0 0 0 0 0 0 0 0 0 0 0 0 0 0 0 0 0 0 0 0 0 0 0 0 0 0 0 0 0 0 0
0 0 0 0 0 0 0 0 0 0 0 0 0 0 -0 0 0 0 0 0 0 0 0 0 0 0 0 0 0 0 0 0 0 0 0 0 0 0 0 0 0 0 0 0
0 0 0 0 0 0 0 0 0 0 0 0 0 0 0 0 0 0 0 0 0 0 0 0 0 0 0 0 0 0 0 0 0 0 0 0 0 0 0 0 0 0 0 0
0 0 0 0 0 0 0 0 0 0 0 0 0 0 0 0 0 0 0 0 0 0 0 0 0 0 0 0 0 0 0 0 0 0 0 0 0 0 0 0 0 0 0 0
0 0 0 0 0 0 0 0 0 0 0 0 0 0 0 0 0 0 0 0 0 0 0 0 0 0 0 0 0 0 0 0 0 0 0 0 0 0 0 0 0 0 0 0
0 0 0 0 0 0 0 0 0 0 0 0 0 0 0 0 0 0 0 0 0 0 0 0 0 0 0 0 0 0 0 0 0 0 0 0 0 0 0 0 0 0 0 0
0 0 0 0 0 0 0 0 0 0 0 0 0 0 0 0 0 0 0 0 0 0 0 0 0 0 0 0 0 0 0 0 0 0 0 0 0 0 0 0 0 0 0 0
0 0 0 0 0 0 0 0 0 0 0 0 0 0 0 0 0 0 0 0 0 0 0 0 0 0 0 0 0 0 0 0 0 0 0 0 0 0 0 0 0 0 0 0
0 0 0 0 0 0 0 0 0 0 0 0 0 0 0 0 0 0 0 0 0 0 0 0 0 0 0 0 0 0 0 0 0 0 0 0 0 0 0 0 0 0 0 0
0 0 0 0 0 0 0 0 0 0 0 0 0 0 0 0 0 0 0 0 0 0 0 0 0 0 0 0 0 0 0 0 0 0 0 0 0 0 0 0 0 0 0 0
0 0 0 0 0 0 0 0 0 0 0 0 0 0 0 0 0 0 0 0 0 0 0 0 0 0 0 0 0 0 0 0 0 0 0 0 0 0 0 0 0 0 0 0
0 0 0 0 0 0 0 0 0 0 0 0 0 0 0 0 0 0 0 0 0 0 0 0 0 0 0 0 0 0 0 0 0 0 0 0 0 0 0 0 0 0 0 0
0 0 0 0 0 0 0 0 0 0 0 0 0 0 0 0 0 0 0 0 0 0 0 0 0 0 0 0 0 0 0 0 0 0 0 0 0 0 0 0 0 0 0 0
0 0 0 0 0 0 0 0 0 0 0 0 0 0 0 0 0 0 0 0 0 0 0 0 0 0 0 0 0 0 0 0 0 0 0 0 0 0 0 0 0 0 0 0
0 0 0 0 0 0 0 0 0 0 0 0 0 0 0 0 0 0 0 0 0 0 0 0 0 0 0 0 0 0 0 0 0 0 0 0 0 0 0 0 0 0 0 0
Wind_Speed
1 2 1 0 0 1 3 5 8 7 5 9 13 17 16 11 8 8 6 5 5 6 6 6 6 7 7 8 8 9 9 8 7 5 6 6 6 6 6 6 7 8 7 7
3 3 1 0 1 3 4 7 7 7 4 8 13 17 12 6 4 4 4 4 4 5 6 6 7 7 8 8 8 9 10 9 8 7 7 6 7 7 7 7 8 9 9 8
3 2 2 2 2 4 5 6 7 10 11 5 10 10 4 1 2 3 4 4 4 5 7 8 8 9 9 9 9 8 10 10 9 9 7 7 7 7 7 8 7 9 10 10
2 2 3 3 3 4 5 3 7 9 9 5 5 8 4 1 3 4 4 4 4 6 8 9 9 10 10 10 10 10 10 10 10 9 8 10 9 10 10 8 8 9 10 11
2 3 3 4 3 4 4 5 6 6 5 6 4 6 6 1 4 4 4 4 5 7 8 9 9 10 11 11 10 10 11 11 11 10 10 11 11 10 9 9 11 11 10 11
1 1 2 2 1 2 3 3 2 3 4 5 3 5 7 3 4 3 3 5 7 8 9 9 10 11 11 11 10 10 12 12 11 11 11 12 13 13 13 12 11 10 9 9
2 3 2 2 2 2 2 3 3 3 3 3 2 6 9 3 4 5 6 7 8 9 10 11 12 12 12 12 11 11 12 13 12 12 11 12 13 14 15 13 11 11 9 9
3 4 4 3 2 1 1 2 2 5 6 5 3 8 6 3 5 6 8 9 9 10 10 11 13 13 13 13 12 12 13 13 13 12 12 12 12 11 10 12 11 12 10 10
4 2 3 1 1 2 3 2 1 2 3 7 7 7 9 7 8 8 8 9 10 11 11 12 13 13 13 13 13 13 13 13 13 13 12 12 12 12 12 12 11 10 10 10
3 3 2 2 3 1 2 3 3 3 4 7 8 8 6 5 7 6 7 9 11 12 12 13 12 13 13 12 12 13 12 13 13 12 11 10 11 12 11 10 11 12 11 11
3 3 3 4 7 6 6 5 4 3 4 6 8 7 3 6 5 6 8 10 12 13 13 13 13 13 13 12 12 12 11 12 12 12 12 12 11 11 10 9 10 10 10 11
5 3 4 4 1 2 6 6 7 5 5 6 8 11 2 5 6 7 11 12 13 13 13 13 14 13 12 12 12 12 12 12 12 11 11 11 11 11 10 9 10 10 11 10
7 5 3 4 4 4 6 7 7 4 4 7 9 12 1 4 8 10 13 15 14 14 14 13 13 13 13 12 12 12 12 12 12 11 12 12 11 11 10 9 9 9 10 10
6 6 8 9 4 4 7 8 10 9 8 10 16 20 17 14 15 16 16 16 16 15 14 13 14 13 13 12 12 12 13 12 12 11 12 12 11 11 9 8 8 9 9 9
6 7 9 13 12 9 12 13 14 17 16 15 18 20 23 19 17 17 16 16 15 15 14 14 14 14 13 13 13 13 13 12 12 12 12 12 11 10 9 8 8 8 9 9
7 6 6 10 11 13 17 18 18 20 21 23 24 26 22 19 15 15 15 14 15 15 15 15 15 14 14 14 13 13 13 12 12 12 12 11 11 10 9 8 8 8 8 8
8 6 5 8 6 8 15 16 18 17 16 15 20 19 16 14 13 14 14 14 15 15 16 15 15 14 14 14 14 14 13 12 12 12 12 11 10 9 9 8 8 8 8 7
9 7 5 5 4 12 7 2 10 14 16 17 17 16 14 14 14 14 14 13 14 15 15 14 14 14 14 13 14 13 12 11 11 12 11 10 9 9 9 8 7 8 7 6
11 9 6 5 8 13 10 6 8 10 12 13 16 16 15 13 13 13 10 10 12 14 14 14 14 14 13 13 12 12 12 11 11 11 11 9 8 8 8 9 8 7 6 5
8 8 7 7 8 11 5 5 5 4 9 6 9 11 11 9 9 10 9 10 12 13 13 13 13 13 13 12 11 12 12 12 12 11 11 9 8 8 9 9 9 7 6 5
9 9 12 13 12 13 4 7 8 7 6 1 5 8 8 8 10 11 11 12 13 13 14 13 13 12 12 12 11 11 11 12 12 11 10 9 8 8 9 8 8 7 6 5
13 11 12 10 12 13 7 11 10 7 3 3 5 7 8 10 12 12 12 13 13 13 13 13 12 12 12 11 10 11 12 11 11 10 10 9 9 8 7 8 7 6 5 4
12 11 7 11 10 3 10 9 7 4 5 6 7 8 9 10 12 12 13 13 13 13 13 12 12 13 12 11 10 11 12 10 10 10 9 8 8 7 7 7 6 5 4 3
7 5 6 9 12 9 9 9 8 8 9 9 8 9 9 11 12 12 12 12 12 12 12 11 11 11 12 11 11 11 11 9 9 9 9 8 8 7 7 5 5 4 4 3
7 7 7 11 11 10 10 12 11 10 10 10 9 9 9 10 11 12 11 12 11 11 11 10 10 11 12 12 11 11 10 9 9 9 8 8 7 7 6 6 5 5 5 4
10 11 11 12 10 9 9 8 9 10 10 10 10 10 9 9 10 11 11 10 10 11 10 10 11 12 12 11 11 10 9 8 7 7 7 6 6 5 5 5 5 6 6 8
Wind_Direction
33 212 208 18 311 287 273 275 285 289 311 298 282 285 290 296 280 264 262 268 277 292 303 308 306 308 304 302 301 302 301 300 301 294 291 290 287 282 276 269 260 256 252 248
190 201 188 188 209 243 255 278 288 292 303 295 295 289 286 287 268 258 260 265 282 299 309 312 311 312 310 304 301 298 298 298 296 287 287 280 279 278 273 267 260 256 250 244
231 100 144 206 236 273 262 271 299 306 311 269 298 280 228 195 231 246 250 259 279 298 308 314 315 314 314 313 310 302 299 295 293 289 284 278 273 271 267 263 258 253 251 245
213 183 212 237 254 273 279 279 291 298 304 302 333 298 267 244 250 235 243 254 280 300 305 310 313 316 315 312 309 304 302 295 292 288 278 275 271 273 269 267 260 254 250 248
189 188 216 243 272 254 287 314 291 281 271 281 241 262 274 224 245 227 237 265 291 301 304 307 310 313 313 311 307 306 305 297 293 288 280 272 268 273 272 267 260 254 248 245
232 216 259 272 309 252 284 275 225 216 237 259 235 252 274 220 226 239 260 287 302 308 306 307 312 312 311 311 309 308 306 302 298 291 283 275 272 275 271 264 261 256 249 243
212 188 181 215 228 181 285 292 285 269 249 259 133 253 260 260 242 251 267 284 298 305 309 311 313 313 313 311 310 309 307 304 302 297 289 284 277 273 267 261 257 255 249 245
244 213 173 193 241 256 250 287 299 295 296 302 235 250 261 270 262 262 273 287 297 303 309 311 311 311 309 308 308 309 307 305 303 300 295 289 282 275 267 258 256 253 248 245
227 228 116 165 273 225 182 181 3 264 287 277 260 264 279 250 247 256 277 290 299 306 310 311 309 308 308 308 308 305 304 304 303 300 296 291 287 281 273 262 258 257 251 247
205 240 186 156 179 152 288 153 174 218 277 280 276 264 257 240 249 262 285 298 305 309 309 310 308 307 305 305 305 303 300 301 301 300 296 292 290 285 277 269 261 260 257 251
190 214 196 197 211 200 171 181 205 220 263 274 287 277 229 254 262 278 297 305 310 311 310 309 308 307 305 306 305 304 304 304 303 302 299 296 294 289 276 271 267 266 263 257
181 212 239 224 137 282 223 209 190 218 231 238 273 278 254 255 275 292 302 308 311 310 309 308 309 309 308 307 306 306 306 305 306 305 301 298 293 292 280 275 273 269 265 258
158 179 233 209 186 190 222 219 217 229 240 233 246 266 210 260 284 294 301 307 310 309 308 308 308 309 308 308 308 307 305 305 306 304 301 299 297 295 286 281 279 276 269 262
167 199 227 251 277 188 219 220 208 204 227 242 243 266 278 285 293 300 304 308 309 308 307 307 309 308 307 307 308 308 306 306 305 303 301 299 299 298 289 284 281 281 277 272
188 228 236 256 264 251 247 240 219 218 230 246 262 270 280 291 300 304 305 305 306 306 308 310 310 309 308 308 309 309 306 305 304 304 302 299 299 299 288 281 280 280 280 276
198 232 240 257 250 253 259 252 239 236 240 248 263 273 277 289 295 296 299 303 305 306 309 312 312 310 308 309 310 309 305 305 305 304 303 302 302 303 299 284 283 283 284 279
188 197 223 257 264 270 257 242 229 227 228 234 249 261 283 291 294 298 302 302 301 305 310 311 310 308 306 307 307 305 305 304 303 303 304 303 302 302 303 296 282 281 283 280
185 190 222 255 254 245 253 194 218 229 240 235 246 265 281 290 297 297 292 293 298 304 307 309 309 307 306 305 304 303 305 303 303 304 305 306 304 302 302 302 292 285 282 274
197 193 212 224 247 267 265 211 197 220 254 238 243 262 278 291 297 288 290 293 297 303 306 307 307 305 303 302 304 304 304 303 304 305 304 303 302 301 299 299 295 294 288 280
198 203 216 219 237 251 260 155 167 202 262 232 236 260 278 290 291 303 323 311 304 306 308 309 308 306 303 304 306 302 302 303 304 306 306 303 301 297 294 295 295 293 287 276
182 202 219 227 240 259 252 146 160 219 268 215 234 259 272 269 277 301 307 304 304 306 309 309 307 304 304 307 305 300 299 299 303 304 305 301 298 295 295 296 293 291 288 281
187 194 207 214 230 246 162 158 201 244 306 271 272 274 274 276 286 295 299 302 306 308 310 311 308 306 307 307 303 300 300 303 305 305 305 302 301 300 300 301 301 300 298 289
208 205 204 209 228 277 171 204 232 275 278 280 280 282 280 282 287 294 299 302 304 306 308 309 307 306 307 307 304 300 302 306 307 307 306 307 308 308 307 304 302 303 299 290
219 216 225 241 252 256 242 249 257 263 270 274 279 281 280 281 288 293 296 300 303 305 307 309 308 306 307 309 304 301 303 305 306 307 307 309 309 309 310 308 302 302 301 300
218 191 222 249 264 274 255 249 257 265 269 270 272 271 271 277 284 290 294 296 300 303 306 307 304 305 305 306 305 305 305 305 306 305 306 308 307 305 307 307 304 299 292 286
218 215 221 244 246 246 264 266 262 261 264 266 271 276 275 275 281 288 291 296 299 302 305 306 305 304 306 307 307 307 307 306 305 304 307 308 307 305 305 308 315 314 293 303